Regional Weather Roundup
Issued by NWS Midland/Odessa, TX

Home | Current Version | Previous Version | Text Only | Print | Product List | Glossary On
Versions: 1 2 3 4 5 6 7 8 9 10 11 12 13 14 15 16 17 18 19 20 21 22 23 24 25 26 27 28 29 30 31 32 33 34 35 36 37 38 39 40 41 42 43 44 45 46 47 48 49 50
000
ASUS44 KMAF 231910
RWRMAF
MIDLAND AREA WEATHER ROUNDUP
NATIONAL WEATHER SERVICE MIDLAND TX
200 PM CDT WED JUL 23 2014

...IN SOUTHWEST TEXAS AND SOUTHEAST NEW MEXICO...

CITY           SKY/WX    TMP DP  RH WIND       PRES   REMARKS
ALPINE         MOSUNNY   86  52  30 E9G18     30.34F
ANDREWS        FAIR      95  55  25 SE14      30.21F
ARTESIA        SUNNY     91  57  31 NE6       30.24F
BIG SPRING     SUNNY     97  55  24 NE7G20    30.20S
CARLSBAD       SUNNY     95  51  22 NE5       30.20F
DRYDEN           N/A    100  61  27 E15G21    30.13F HX 101
FORT STOCKTON  SUNNY     93  57  29 SE13G20   30.20F
GUAD PASS      SUNNY     85  51  31 E28       30.37F
HOBBS          SUNNY     91  48  22 E10G17    30.26F
MARFA          MOSUNNY   86  52  30 E14G21    30.34S
MIDLAND AIRPK  SUNNY     95  54  24 SE7       30.20F
MIDLAND INTL   SUNNY     93  59  31 E6G20     30.19F
ODESSA         SUNNY     94  55  26 VRB7      30.21F
PECOS          SUNNY     96  55  24 E16G25    30.17F
PRESIDIO       MOCLDY    95  56  26 E8        30.14F
SEMINOLE       SUNNY     94  52  24 SE5       30.24F
SNYDER         SUNNY     95  58  29 E10G18    30.19S
WINK           SUNNY     97  53  22 E15       30.17F
$$
...OTHER STATIONS IN TEXAS...

CITY           SKY/WX    TMP DP  RH WIND       PRES   REMARKS
ABILENE        SUNNY     95  63  34 NE12G18   30.14F
AMARILLO       SUNNY     90  59  35 VRB6      30.29S
AUSTIN         PTSUNNY   94  72  48 NE8       30.04S HX 102
BROWNSVILLE    MOSUNNY   94  71  47 E9        30.01F HX 101
CORPUS CHRISTI PTSUNNY   95  72  47 E10       30.01F HX 103
DALLAS FTW     MOSUNNY   93  67  42 E7        30.08F
DEL RIO        MOSUNNY   96  66  37 S7        30.06F
EL PASO        MOSUNNY   91  52  26 SE17G23   30.23F
HOUSTON INT    MOSUNNY   91  72  53 NE13G20   30.03F
LUBBOCK        MOSUNNY   94  62  34 NE8       30.25S
SAN ANGELO     SUNNY     95  60  31 E12       30.13F
SAN ANTONIO    PTSUNNY   93  70  46 CALM      30.06F
WACO           MOSUNNY   92  65  40 CALM      30.07F
WICHITA FALLS  NOT AVBL
$$
...OTHER LOCATIONS IN NEW MEXICO...

CITY           SKY/WX    TMP DP  RH WIND       PRES   REMARKS
ALAMAGORDO     MOSUNNY   91  48  22 W5        30.25F
ALBUQUERQUE    PTSUNNY   83  51  33 S12G23    30.36F
CANNON AFB     MOSUNNY   88  60  38 SE8       30.33S
CLOVIS         NOT AVBL
HOLLOMAN AFB   MOSUNNY   93  54  26 VRB6      30.22F
ROSWELL        SUNNY     91  58  32 MISG      30.25F
RUIDOSO        MOSUNNY   77  50  38 MISG      30.51S
SANTA FE       PTSUNNY   79  55  43 NE14G22   30.44R
TRUTH OR CONSE MOSUNNY   88  54  31 VRB6      30.29F
TUCUMCARI      MOSUNNY   92  58  31 VRB7      30.28F
$$



USA.gov is the U.S. government's official web portal to all federal, state and local government web resources and services.